Regional Weather Roundup
Issued by NWS Green Bay, WI

Home | Current Version | Previous Version | Text Only | Print | Product List | Glossary On
Versions: 1 2 3 4 5 6 7 8 9 10 11 12 13 14 15 16 17 18 19 20 21 22 23 24 25 26 27 28 29 30 31 32 33 34 35 36 37 38 39 40 41 42 43 44 45 46 47 48 49 50
000
ASUS43 KGRB 180310
RWRGRB

NORTH-CENTRAL AND NORTHEAST WISCONSIN REGIONAL WEATHER ROUNDUP
NATIONAL WEATHER SERVICE GREEN BAY WI
1000 PM CDT FRI APR 17 2015

WIZ005-009-010>012-018-019-180400-
NORTH CENTRAL WISCONSIN

CITY           SKY/WX    TMP DP  RH WIND       PRES   REMARKS
IRONWOOD       CLEAR     48  34  57 SW5       29.97R
MANITOWISH WTR CLEAR     46  37  70 CALM      30.01R
ARBOR VITAE    CLEAR     52  32  46 CALM      30.01R
EAGLE RIVER    CLEAR     45  31  57 CALM      30.00S
LAND O LAKES   CLEAR     41  34  76 CALM      30.01S
RHINELANDER    CLEAR     57  28  33 W7        30.01R
PHILLIPS       PTCLDY    49  39  67 CALM      30.01R
ANTIGO         CLEAR     57  43  57 W7        30.00R
TOMAHAWK       CLEAR     50  33  53 CALM      30.02R
MERRILL        CLEAR     58  36  43 W3        30.00S
$$

WIZ013-073-180400-
NORTHEAST WISCONSIN

CITY           SKY/WX    TMP DP  RH WIND       PRES   REMARKS
IRON MOUNTAIN  CLEAR     51  39  63 SE6       29.97R
MARINETTE      CLEAR     45  36  70 CALM      29.96F
OCONTO         PTCLDY    46  41  80 CALM      29.96S
$$

WIZ017-030-035>037-045-180400-
CENTRAL WISCONSIN

CITY           SKY/WX    TMP DP  RH WIND       PRES   REMARKS
MEDFORD        CLEAR     54  37  52 NW3       30.02R
WAUSAU         CLEAR     61  41  47 NW7       29.98S
MOSINEE        CLEAR     61  41  48 W8        30.01R
MARSHFIELD     CLEAR     57  43  59 NW10      30.01R
WISC RAPIDS    CLEAR     57  40  52 CALM      30.01R
STEVENS POINT  CLEAR     54  42  65 CALM      30.00S
WAUPACA        CLEAR     58  43  56 CALM      29.99R
SHAWANO        CLEAR     62  41  45 S3        29.97S
CLINTONVILLE   CLEAR     57  43  58 S3        29.98R
$$

WIZ038-039-048-051-180400-
FOX VALLEY

CITY           SKY/WX    TMP DP  RH WIND       PRES   REMARKS
NWS GREEN BAY  CLEAR     56  45  66 CALM      29.98R
APPLETON       CLEAR     59  43  55 S5        29.99R
OSHKOSH        PTCLDY    57  44  62 S9        29.99R
FOND DU LAC    CLEAR     58  42  55 S3        29.99R
$$

WIZ022-050-052-180400-
EAST CENTRAL WISCONSIN

CITY           SKY/WX    TMP DP  RH WIND       PRES   REMARKS
STURGEON BAY   CLEAR     46  37  71 S6        29.99S
MANITOWOC      CLEAR     45  42  89 CALM      29.99S
SHEBOYGAN      CLEAR     49  40  71 SW5       29.99S
$$

LMZ563-521-522-541>543-180400-
LAKESHORE

STATION/POSITION TIME  TEMP    WIND        PRES    VSBY  WAVE
                       AIR SEA DIR/SP/G                  HT/PER
                 (UTC) (F)     (DEG/KT/KT) (MB)    (MI)  (FT/S)
SHEBOYGAN LKSHOR 0300   54     220/  8/  8 1016.1F
KEWAUNEE LKSHORE 0300   46     170/  7/  8 1014.6R
NORTHPORT PIER   0300   47     220/  3/  5 1015.2S
SISTER BAY LKSHO 0200   49     200/  5/  6   N/A
CHAMBERS ISLAND  0300   43        CALM     1015.2S
MENOMINEE LKSHOR 0300   47     140/  5/  6 1015.4S
$$



USA.gov is the U.S. government's official web portal to all federal, state and local government web resources and services.